Regional Weather Roundup
Issued by NWS

Home | Current Version | Previous Version | Text Only | Print | Product List | Glossary Off
Versions: 1 2 3 4 5 6 7 8 9 10 11 12 13 14 15 16 17 18 19 20 21 22 23 24 25 26 27 28 29 30 31 32 33 34 35 36 37 38 39 40 41 42 43 44 45 46 47 48 49 50

490
ASUS43 KLSX 142007
RWRMO

WEATHER SUMMARY FOR MISSOURI
NATIONAL WEATHER SERVICE SPRINGFIELD MO
200 PM CST SUN FEB 14 2016

NOTE: "FAIR" INDICATES FEW OR NO CLOUDS BELOW 12,000 FEET WITH NO
       SIGNIFICANT WEATHER AND/OR OBSTRUCTIONS TO VISIBILITY.
       CURRENT SKY AND/OR WEATHER CONDITIONS ARE NOT AVAILABLE FOR
       CHILLICOTHE AND FARMINGTON.

MOZ001>031-035>038-043-044-053-054-142100-
...NORTHERN AND WESTERN MISSOURI...

CITY           SKY/WX    TMP DP  RH WIND       PRES   REMARKS
KANSAS CTY INT PTSUNNY   49  27  42 W10       29.85F
KANSAS C DTWN  SUNNY     48  25  40 SW6       29.86F
LEE`S SUMMIT   SUNNY     45  26  47 SW9G17    29.86F
ST JOSEPH      PTSUNNY   46  24  42 W9        29.84F
CHILLICOTHE      N/A     38  25  59 VRB7      29.88F
KIRKSVILLE     CLOUDY    26  21  81 SE9       29.88F WCI  17

$$
MOZ066>068-077>081-088>096-101>105-142100-
...SOUTHWEST MISSOURI...

CITY           SKY/WX    TMP DP  RH WIND       PRES   REMARKS
SPRINGFIELD    CLOUDY    34  27  75 S10       29.92F WCI  26
JOPLIN         SUNNY     51  36  56 SW8       29.90F

$$
MOZ032>034-039>042-045>050-055>058-069>072-142100-
...CENTRAL MISSOURI...

CITY           SKY/WX    TMP DP  RH WIND       PRES   REMARKS
COLUMBIA       CLOUDY    31  26  82 S12       29.91F WCI  22
JEFFERSON CITY CLOUDY    31  26  82 S8        29.94F WCI  23
ROLLA          CLOUDY    29  25  85 S15       29.91F WCI  18
SEDALIA        PTSUNNY   37  30  75 SW10      29.91S WCI  30
WHITEMAN AFB   MOSUNNY   41  32  70 SW13      29.87F
WARRENSBURG    SUNNY     43  32  65 SW12      29.88F
OSAGE BEACH    CLOUDY    30  25  80 CALM      29.93F

$$
MOZ051-052-059>065-142100-
...EAST CENTRAL MISSOURI...

CITY           SKY/WX    TMP DP  RH WIND       PRES   REMARKS
ST LOUIS INTL  CLOUDY    26  19  74 SE13      30.00F WCI  15
SPIRIT OF STL  CLOUDY    26  20  77 SE8       29.98F WCI  18
ST CHARLES     CLOUDY    24  20  84 SE12      30.00F WCI  13

$$
MOZ072>076-082>087-097>100-106>115-142100-
...SOUTH CENTRAL AND SOUTHEAST MISSOURI...

CITY           SKY/WX    TMP DP  RH WIND       PRES   REMARKS
CAPE GIRARDEAU CLOUDY    28  25  88 S9        30.05F WCI  19
FARMINGTON     CLOUDY    26  23  88 S13       29.98F WCI  15
POPLAR BLUFF   CLOUDY    28  25  88 SE6       30.03F FOG     WCI  22
WEST PLAINS    CLOUDY    27  23  85 S9        29.96F FOG     WCI  18

$$



USA.gov is the U.S. government's official web portal to all federal, state and local government web resources and services.